926  
ASUS46 KPDT 211925  
RWRPDT  
PENDLETON REGIONAL WEATHER ROUNDUP  
NATIONAL WEATHER SERVICE PENDLETON OREGON  
1200 PM PDT SAT SEP 21 2019  
 
NOTE: FAIR INDICATES FEW OR NO CLOUDS BELOW 12,000 FEET WITH NO  
SIGNIFICANT WEATHER AND/OR S TO VISIBILITY
.  
 
# INDICATES UNOFFICIAL STATION AND DATA  
 
WAZ520-212010-  
EAST SLOPES OF WASHINGTON CASCADES  
 
CITY SKY/WX TMP DP RH WIND PRES REMARKS
 
#BULLFROG N/A 66 48 52 W6 N/A  
#ELK HTS DOT N/A 67 66 97 W2 N/A  
#GLENWOOD N/A 62 51 67 CALM 30.09F  
#NELSON 3SW N/A 62 48 60 CALM 30.23F  
#NILE N/A 68 45 44 NW1 29.39F  
#TROUT LAKE 1NE N/A 63 52 67 CALM 30.05F  
#TROUT LAKE 1E N/A 65 51 60 CALM 30.11F  

 
 
WAZ521-212010-  
SIMCOE HIGHLANDS  
 
CITY SKY/WX TMP DP RH WIND PRES REMARKS
 
#SATUS PASS DOT N/A 59 41 51 N7 N/A  
#CENTERVILLE 1SWN/A 64 48 56 W7 30.01F  
#LYLE 6NE N/A 66 52 61 SW8 30.07F  
#PITT 4SE N/A 61 50 67 W6 30.10F  

 
 
WAZ026-212010-  
KITTITAS VALLEY  
 
CITY SKY/WX TMP DP RH WIND PRES REMARKS
 
ELLENSBURG AP SUNNY 70 44 39 S7 30.06F  
#ELLENSBURG CWU N/A 68 47 47 W2 29.97F  
#ELLENSBURG 1E N/A 67 48 50 SW2 30.05F  
#MANASTASH RDG N/A 65 45 48 CALM N/A  
#ROCKY CYN DOT N/A 72 47 41 N3 N/A  
#RYEGRASS DOT N/A 62 42 48 W8 N/A  
#THORP 6N N/A 60 52 75 SE1 30.06F  

 
 
WAZ027-212010-  
YAKIMA VALLEY  
 
CITY SKY/WX TMP DP RH WIND PRES REMARKS
 
SUNNYSIDE AP SUNNY 69 49 49 CALM 30.07F  
YAKIMA AIRPORT SUNNY 69 44 40 VRB3 30.07F  
YAKIMA-VAGABOND SUNNY 68 40 36 W5 30.05F  
#MABTON N/A 69 53 57 CALM 30.06F  
#NACHES 2SW N/A 68 50 53 E1 30.09S  
#PARKER DOT N/A 70 44 39 N3 30.06F  
#TERRACE HTS N/A 71 51 49 S1 30.02F  
#TOPPENISH N/A 67 48 50 CALM 29.97F  
#I82 S UMTANUM RN/A 66 38 36 SW7 N/A  

 
 
WAZ028-212010-  
LOWER COLUMBIA BASIN...WASHINGTON  
 
CITY SKY/WX TMP DP RH WIND PRES REMARKS
 
HANFORD MOSUNNY 70 44 39 E5 30.06F  
PASCO SUNNY 72 47 41 SW8 30.08F  
PROSSER AWOS N/A 70 50 49 VRB5 30.09F  
RICHLAND AWOS SUNNY 73 47 40 S9 30.07F  
#BASIN CITY 5SW N/A 69 51 53 S1 30.04F  
#CONNELL 5N N/A 68 51 55 S5 30.06F  
#CONNELL 5NW N/A 64 36 35 N2 30.01F  
#ELTOPIA 6NW N/A 66 53 63 CALM 29.05F  
#KAHLOTUS N/A 66 49 54 W15 30.06F  
#KENNEWICK 3S N/A 69 53 57 CALM 30.06F  
#SAGEMOOR 2W N/A 67 51 56 S5 29.92F  
#TOUCHET 2S N/A 72 52 49 W6 30.05F  

 
 
WAZ029-212010-  
FOOTHILLS OF THE BLUES...WASHINGTON  
 
CITY SKY/WX TMP DP RH WIND PRES REMARKS
 
WALLA WALLA AP SUNNY 68 47 47 SW13 30.10F  
#CLYDE 6NW N/A 66 49 54 W13 30.04F  
#DELANEY DOT N/A 69 45 42 S6 30.11F  
#LOWDEN 2SE N/A 70 52 53 W5 30.05F  
#PRESCOTT N/A 71 50 47 SW2 30.07F  
#WALLA WALLA 5E N/A 71 52 51 W9 N/A  
#WALLA WALLA U N/A 69 52 55 W3 30.07F  
#WHITMAN MISSIONN/A 69 51 53 SW7 30.09F  

 
 
WAZ030-212010-  
BLUE MOUNTAINS...WASHINGTON  
 
CITY SKY/WX TMP DP RH WIND PRES REMARKS
 
#DIXIE 5SE N/A 59 48 67 SW9 30.05F  

 
 
ORZ009-041-WAZ024-212010-  
COLUMBIA RIVER GORGE  
 
CITY SKY/WX TMP DP RH WIND PRES REMARKS
 
HOOD RIVER AP SUNNY 70 50 49 W10 30.08F  
THE DALLES AP SUNNY 70 52 53 CALM 30.08F  
#CELILO DOT N/A 70 49 47 SW2 N/A  
#LYLE N/A 70 55 59 W9 30.07F  
#MARYHILL N/A 67 49 52 N9 N/A  
#RUFUS DOT N/A 70 50 49 W10 N/A  
 

 
 
ORZ510-212010-  
NORTH CENTRAL OREGON  
 
CITY SKY/WX TMP DP RH WIND PRES REMARKS
 
#ANTELOPE N/A 61 46 58 W7 29.98F  
#COW CYN RST AREN/A 58 42 55 S8 N/A  
#DUFUR N/A 68 48 49 E1 30.04F  
#DUFUR 9E N/A 63 49 60 CALM 30.12F  
#GRASS VALLEY 1SN/A 64 47 54 SW9 30.26F  
#KENT DOT N/A 63 34 34 SW8 N/A  
#TYGH VALLEY 2NEN/A 66 51 58 CALM 30.07F  
#WAPANITIA AIRPON/A 67 47 49 S2 30.09F  
#WASCO DOT N/A 68 46 45 NW6 N/A  
#WASCO 5NE N/A 66 47 50 SW8 30.05F  

 
 
ORZ511-212010-  
CENTRAL OREGON  
 
CITY SKY/WX TMP DP RH WIND PRES REMARKS
 
BEND AIRPORT SUNNY 64 41 43 E5 30.13F  
MADRAS AIRPORT SUNNY 64 41 43 S6 30.15F  
PRINEVILLE AP SUNNY 63 43 48 VRB6 30.14F  
REDMOND AIRPORT SUNNY 65 42 43 VRB6 30.14F  
#ASHWOOD SCHOOL N/A 64 46 52 N2 30.07F  
#BEND-KIM LN N/A 63 44 50 NE1 30.04F  
#PRINEVILLE N/A 62 49 62 CALM 30.19F  
#WARM SPRINGS N/A 66 47 50 CALM 29.95F  
 

 
 
 
ORZ509-212010-  
EAST SLOPES OF OREGON CASCADES  
 
CITY SKY/WX TMP DP RH WIND PRES REMARKS
 
SISTERS AWOS N/A 63 43 48 CALM 30.09F  
#BLUE BOX PASS N/A 58 N/A N/A W1 N/A  
#CAMP SHERMAN N/A 69 43 39 CALM 30.12F  
#LA PINE 4NW N/A 58 42 55 CALM 29.93S  
#LAVA BUTTE DOT N/A 56 36 47 SE2 N/A  
#SISTERS ODOT N/A 63 41 44 CALM N/A  
#TUMALO 3W N/A 63 44 50 E1 29.95F  
#WANOGA BUTTE D N/A 53 37 54 SW7 N/A  
 

 
 
ORZ044-212010-  
LOWER COLUMBIA BASIN...OREGON  
 
CITY SKY/WX TMP DP RH WIND PRES REMARKS
 
HERMISTON SUNNY 72 49 44 W9 30.08F  
#BOARDMAN SCHOOLN/A 70 53 55 S5 30.03F  
#I-84 EX 198 DOTN/A 67 46 47 NE12 N/A  
#IONE SCHOOL N/A 68 48 49 SW3 30.07F  
#UMATILLA N/A 68 51 55 CALM 30.00F  

 
 
ORZ507-212010-  
NORTHERN FOOTHILLS OF THE BLUES  
 
CITY SKY/WX TMP DP RH WIND PRES REMARKS
 
PENDLETON AIRPT SUNNY 70 46 42 W14 30.10F  
#ADAMS 3WNW N/A 67 48 50 W8 30.09F  
#ATHENA N/A 66 49 54 CALM 30.11F  
#CAYUSE N/A 65 49 56 W5 30.08F  
#HELIX SCHOOL N/A 65 49 56 CALM 30.08F  
#HELIX 3N N/A 64 47 54 SW13 30.11F  
#HOLDMAN 6E N/A 66 50 56 S12 29.88F  
#M-FREEWATER 5SEN/A 67 50 54 W6 30.09F  
#PDT AQUATIC CTRN/A 67 48 50 W7 30.06S  
#PDT SUNRIDGE N/A 69 51 53 CALM 30.11F  
#PENDLETON 6SE N/A 68 50 53 CALM 30.04F  
#TUTUILLA N/A 65 48 54 CALM 30.16F  
#UMAPINE 2E N/A 69 52 55 W1 30.06F  
 

 
 
ORZ508-212010-  
SOUTHERN FOOTHILLS OF THE BLUES  
 
CITY SKY/WX TMP DP RH WIND PRES REMARKS
 
#AJAX N/A 64 40 41 N1 30.25F  
#CONDON 5W N/A 59 43 55 SW9 30.11F  
#HEPPNER EOC N/A 66 48 52 W6 30.00F  
#HEPPNER 4NE N/A 64 47 54 SW3 30.08F  
#LEXINGTON 2SE N/A 70 48 46 NW6 30.06F  
#OLEX 4N N/A 68 48 49 SW7 30.08F  
#RUGGS 5NE N/A 66 45 47 W3 30.30S  
#RUGGS 2SW N/A 65 47 52 W3 30.09F  
 

 
 
ORZ502-503-212010-  
BLUE MOUNTAINS  
 
CITY SKY/WX TMP DP RH WIND PRES REMARKS
 
MEACHAM SUNNY 63 44 50 VRB3 30.14F  
#BATTLE MTN DOT N/A 52 42 69 S7 N/A  
#LADD CYN SMT N/A 61 39 44 SE8 N/A  
#N POWDER DOT N/A 63 40 43 SW2 N/A  
#TOLLGATE N/A 53 43 69 CALM 30.18S  
#TROY SCHOOL N/A 69 51 53 CALM 29.89F  
#WESTON 4E N/A 59 46 62 W1 30.07F  

 
 
ORZ505-212010-  
JOHN DAY BASIN  
 
CITY SKY/WX TMP DP RH WIND PRES REMARKS
 
JOHN DAY SUNNY 62 47 58 CALM 30.16F  
#MITCHELL 8NW N/A 58 46 64 CALM 30.11F  
#MONUMENT HS N/A 61 49 65 E3 30.11F  

 
 
ORZ506-212010-  
OCHOCO AND JOHN DAY HIGHLANDS  
 
CITY SKY/WX TMP DP RH WIND PRES REMARKS
 
#BUCK CREEK DOT N/A 57 38 49 S5 N/A  
#HORSE RIDGE DO N/A 62 35 36 CALM N/A  
#KEYES SMT DOT N/A 57 41 55 SW6 N/A  
#PAULINA ODOT N/A 53 N/A N/A E3 N/A  
#PRAIRIE CITY N/A 62 47 58 SW1 30.27F  
#SENECA 9NW N/A 55 41 59 CALM 30.12F  

 
 
ORZ049-212010-  
GRANDE RONDE VALLEY  
 
CITY SKY/WX TMP DP RH WIND PRES REMARKS
 
LA GRANDE SUNNY 62 46 56 CALM 30.14F  
#COVE SCHOOL N/A 65 50 58 CALM 30.13F  
#COVE 6NW N/A 63 48 58 CALM 30.11F  
#ELGIN 1E N/A 67 48 50 CALM N/A  
#IMBLER SCHOOL N/A 59 48 67 CALM 30.08F  
#ISLAND CITY 4N N/A 63 57 81 CALM 30.14F  
#LADD CYN DOT N/A 63 49 60 N1 N/A  
#UNION 1S N/A 64 49 58 E1 30.10F  

 
 
ORZ050-212010-  
WALLOWA COUNTY  
 
CITY SKY/WX TMP DP RH WIND PRES REMARKS
 
#ENTERPRISE HS N/A 62 46 56 CALM 29.98F  
#IMNAHA SCHOOL N/A 69 48 47 SE1 30.08F  
#IMNAHA 10S N/A 68 46 45 E1 30.08F  
#JOSEPH 3N N/A 58 42 55 CALM 30.15F  
#LOSTINE N/A 62 47 58 N1 29.89F  
#LOSTINE 3SE N/A 63 45 52 E7 N/A  
#MT HOWARD 8000 N/A 42 37 82 CALM 30.24S  
#WALLOWA LAKE N/A 64 46 52 NE1 30.17F  
 

 
 
CLICK HERE TO GO TO PREVIOUS BULLETINS.

The Nexlab OR Page
The Nexlab WA Page Main Text Page